FW9555 Weather Reports


time (UTC)temp
C
wind
direction
speed
KPH
gust
KPH
rain 1hr
cm
rain 24hr
cm
rain mn
cm
humidity
%
barometer
mb
20260508145419 15 263 0.0 6.4 0.00 0.00 0.00 64 1021.6
20260508144915 15 90 0.0 4.8 0.00 0.00 0.00 69 1021.6
20260508144413 14 0 3.2 6.4 0.00 0.00 0.00 68 1021.8
20260508143911 13 84 0.0 4.8 0.00 0.00 0.00 72 1021.6
20260508143408 12 98 1.6 3.2 0.00 0.00 0.00 81 1021.5
20260508142904 11 54 0.0 4.8 0.00 0.00 0.00 93 1021.7
20260508142401 11 66 1.6 4.8 0.00 0.00 0.00 96 1021.6
20260508141858 10 106 0.0 3.2 0.00 0.00 0.00 92 1021.6
20260508141354 10 75 3.2 3.2 0.00 0.00 0.00 99 1021.7
20260508140852 10 41 3.2 3.2 0.00 0.00 0.00 99 1021.7
20260508140349 10 308 4.8 4.8 0.00 0.00 0.00 99 1021.6
20260508135844 10 81 0.0 3.2 0.00 0.00 0.00 99 1021.3
20260508135341 10 20 0.0 3.2 0.00 0.00 0.00 99 1021.5
20260508134837 10 60 0.0 3.2 0.00 0.00 0.00 99 1021.6
20260508134334 10 67 3.2 3.2 0.00 0.00 0.00 99 1021.6
20260508133831 10 81 0.0 3.2 0.00 0.00 0.00 99 1021.6
20260508133329 10 37 0.0 3.2 0.00 0.00 0.00 99 1021.4
20260508132826 10 74 0.0 3.2 0.00 0.00 0.00 99 1021.5
20260508132323 10 90 0.0 3.2 0.00 0.00 0.00 99 1021.5
20260508131820 10 77 1.6 3.2 0.00 0.00 0.00 99 1021.5
20260508131315 10 90 1.6 3.2 0.00 0.00 0.00 99 1021.3
20260508130812 10 112 3.2 3.2 0.00 0.00 0.00 99 1021.5
20260508130309 10 100 3.2 3.2 0.00 0.00 0.00 99 1021.4
20260508125805 10 66 1.6 4.8 0.00 0.00 0.00 99 1021.3
20260508125305 10 75 1.6 3.2 0.00 0.00 0.00 99 1021.3
20260508124800 10 66 1.6 3.2 0.00 0.00 0.00 99 1021.1
20260508124257 10 111 1.6 4.8 0.00 0.00 0.00 99 1021.1
20260508123755 10 112 3.2 3.2 0.00 0.00 0.00 99 1021.2
20260508123253 10 82 1.6 3.2 0.00 0.00 0.00 99 1020.9
20260508122748 10 65 0.0 3.2 0.00 0.00 0.00 99 1020.9
20260508122246 10 70 3.2 3.2 0.00 0.00 0.00 99 1020.9
20260508121743 10 33 0.0 3.2 0.00 0.00 0.00 99 1020.7
20260508121242 10 66 0.0 1.6 0.00 0.00 0.00 99 1021.0
20260508120738 10 0 0.0 1.6 0.00 0.00 0.00 99 1020.9
20260508120237 10 90 1.6 3.2 0.00 0.00 0.00 99 1020.8
20260508115734 9 146 0.0 4.8 0.00 0.00 0.00 99 1021.0
20260508115231 9 69 0.0 3.2 0.00 0.00 0.00 99 1020.7
20260508114727 9 90 1.6 3.2 0.00 0.00 0.00 99 1020.4
20260508114224 8 72 3.2 3.2 0.00 0.00 0.00 99 1020.3
20260508113721 8 90 0.0 3.2 0.00 0.00 0.00 99 1020.3
20260508113220 8 41 0.0 3.2 0.00 0.00 0.00 99 1020.1
20260508112715 8 7 0.0 3.2 0.00 0.00 0.00 99 1020.3
20260508112212 8 66 1.6 4.8 0.00 0.00 0.00 99 1019.9
20260508111709 8 81 0.0 3.2 0.00 0.00 0.00 99 1020.1
20260508111207 8 90 1.6 1.6 0.00 0.00 0.00 99 1019.9
20260508110704 8 73 0.0 3.2 0.00 0.00 0.00 99 1019.8
20260508110200 8 90 3.2 3.2 0.00 0.00 0.00 99 1020.0
20260508105655 8 60 3.2 3.2 0.00 0.00 0.00 99 1019.9
20260508105152 8 37 3.2 3.2 0.00 0.00 0.00 99 1019.6
20260508104649 8 14 0.0 3.2 0.00 0.00 0.00 99 1019.6
20260508104146 8 10 0.0 3.2 0.00 0.00 0.00 99 1019.4
20260508103643 8 102 1.6 3.2 0.00 0.00 0.00 99 1019.4
20260508103140 8 57 1.6 3.2 0.00 0.00 0.00 99 1019.1
20260508102637 8 74 0.0 4.8 0.00 0.00 0.00 99 1019.0
20260508102135 8 90 1.6 3.2 0.00 0.00 0.00 99 1019.0
20260508101632 8 74 0.0 3.2 0.00 0.00 0.00 99 1018.9
20260508101130 8 74 0.0 4.8 0.00 0.00 0.00 99 1018.6
20260508100627 8 75 1.6 3.2 0.00 0.00 0.00 99 1018.8
20260508100125 8 55 3.2 6.4 0.00 0.00 0.00 99 1018.8
20260508095621 8 90 3.2 3.2 0.00 0.00 0.00 99 1018.9
20260508095119 8 109 1.6 3.2 0.00 0.00 0.00 99 1019.1
20260508094615 8 90 0.0 3.2 0.00 0.00 0.00 99 1018.8
20260508094112 8 96 3.2 4.8 0.00 0.00 0.00 99 1018.8
20260508093609 8 66 0.0 3.2 0.00 0.00 0.00 99 1018.7
20260508093107 8 84 0.0 3.2 0.00 0.00 0.00 99 1018.6
20260508092604 9 99 0.0 4.8 0.00 0.00 0.00 99 1018.7
20260508092103 9 84 1.6 3.2 0.00 0.00 0.00 99 1018.7
20260508091559 9 120 1.6 3.2 0.00 0.00 0.00 99 1018.5
20260508091056 9 99 0.0 3.2 0.00 0.00 0.00 99 1018.6
20260508090554 9 123 0.0 3.2 0.00 0.00 0.00 99 1018.6
20260508090050 9 98 3.2 4.8 0.00 0.00 0.00 99 1018.4
20260508085547 9 60 0.0 3.2 0.00 0.00 0.00 99 1018.4
20260508085045 9 66 1.6 3.2 0.00 0.00 0.00 99 1018.3
20260508084541 10 53 0.0 3.2 0.00 0.00 0.00 99 1018.3
20260508084039 10 74 0.0 1.6 0.00 0.00 0.00 99 1018.4
20260508083536 10 68 3.2 3.2 0.00 0.00 0.00 99 1018.5
20260508083032 10 90 1.6 3.2 0.00 0.00 0.00 99 1018.2
20260508082528 10 0 0.0 3.2 0.00 0.00 0.00 99 1018.4
20260508082026 10 90 1.6 3.2 0.00 0.00 0.00 99 1018.3
20260508081523 10 54 0.0 3.2 0.00 0.00 0.00 99 1018.2
20260508081019 10 81 0.0 3.2 0.00 0.00 0.00 99 1018.3
20260508080517 10 35 0.0 3.2 0.00 0.00 0.00 99 1018.2
20260508080014 10 74 0.0 1.6 0.00 0.00 0.00 99 1018.1
20260508075511 10 131 3.2 3.2 0.00 0.00 0.00 99 1018.0
20260508075008 10 107 0.0 4.8 0.00 0.00 0.00 99 1017.8
20260508074506 10 60 0.0 3.2 0.00 0.00 0.00 99 1018.0
20260508074002 10 74 0.0 3.2 0.00 0.00 0.00 99 1017.9
20260508073500 10 84 0.0 3.2 0.00 0.00 0.00 99 1018.0
20260508072957 10 90 0.0 1.6 0.00 0.00 0.00 99 1017.9
20260508072453 10 82 1.6 3.2 0.00 0.00 0.00 99 1018.0
20260508071950 10 105 1.6 3.2 0.00 0.00 0.00 99 1017.9
20260508071448 10 78 1.6 3.2 0.00 0.00 0.00 99 1017.9
20260508070945 10 109 1.6 3.2 0.00 0.00 0.00 99 1017.8
20260508070443 10 90 1.6 3.2 0.00 0.00 0.00 99 1017.6
20260508065941 10 70 3.2 4.8 0.00 0.00 0.00 99 1017.9
20260508065439 10 358 4.8 4.8 0.00 0.00 0.00 99 1017.8
20260508064937 10 29 0.0 3.2 0.00 0.00 0.00 99 1017.6
20260508064434 10 83 0.0 6.4 0.00 0.00 0.00 99 1017.7
20260508063931 10 7 0.0 3.2 0.00 0.00 0.00 99 1017.6
20260508063429 10 75 1.6 3.2 0.00 0.00 0.00 99 1017.6
20260508062926 10 28 3.2 4.8 0.00 0.00 0.00 99 1017.4
20260508062424 10 90 0.0 3.2 0.00 0.00 0.00 99 1017.7
20260508061921 10 90 3.2 4.8 0.00 0.00 0.00 99 1017.7
20260508061418 10 77 0.0 3.2 0.00 0.00 0.00 99 1017.7
20260508060914 10 345 0.0 3.2 0.00 0.00 0.00 99 1017.8
20260508060412 10 105 1.6 3.2 0.00 0.00 0.00 99 1017.6
20260508055907 10 45 0.0 3.2 0.00 0.00 0.00 99 1017.8
20260508055404 10 82 0.0 3.2 0.00 0.00 0.00 99 1017.6
20260508054901 10 54 1.6 1.6 0.00 0.00 0.00 99 1017.8
20260508054358 10 66 1.6 3.2 0.00 0.00 0.00 99 1017.9
20260508053855 11 60 3.2 3.2 0.00 0.00 0.00 99 1017.6
20260508053352 11 117 0.0 3.2 0.00 0.00 0.00 99 1017.6
20260508052850 10 60 1.6 1.6 0.00 0.00 0.00 99 1017.6
20260508052347 10 81 0.0 1.6 0.00 0.00 0.00 99 1017.5
20260508051843 10 74 0.0 0.0 0.00 0.00 0.00 99 1017.5
20260508051338 11 81 0.0 0.0 0.00 0.00 0.00 99 1017.6
20260508050835 11 90 0.0 1.6 0.00 0.00 0.00 99 1017.6
20260508050332 11 74 0.0 0.0 0.00 0.00 0.00 99 1017.5
20260508045828 11 66 1.6 1.6 0.00 0.00 0.00 99 1017.5
20260508045326 11 74 0.0 0.0 0.00 0.00 0.00 99 1017.5
20260508044823 11 74 0.0 0.0 0.00 0.00 0.00 99 1017.3
20260508044319 11 74 0.0 0.0 0.00 0.00 0.00 99 1017.5
20260508043816 11 83 1.6 3.2 0.00 0.00 0.00 99 1017.1
20260508043313 11 74 0.0 1.6 0.00 0.00 0.00 99 1017.3
20260508042810 11 74 0.0 0.0 0.00 0.00 0.00 99 1017.1
20260508042308 11 74 0.0 0.0 0.00 0.00 0.00 99 1017.2
20260508041804 11 60 1.6 3.2 0.00 0.00 0.00 99 1017.1
20260508041300 11 74 0.0 1.6 0.00 0.00 0.00 99 1017.2
20260508040757 11 74 0.0 1.6 0.00 0.00 0.00 99 1017.1
20260508040255 11 90 0.0 0.0 0.00 0.00 0.00 99 1017.1
20260508035752 12 74 1.6 1.6 0.00 3.15 3.15 99 1017.2
20260508035249 12 81 0.0 0.0 0.00 3.15 3.15 99 1017.2
20260508034745 12 74 0.0 0.0 0.00 3.15 3.15 99 1017.0
20260508034243 12 90 0.0 0.0 0.00 3.15 3.15 99 1017.0
20260508033740 12 90 0.0 0.0 0.00 3.15 3.15 99 1017.0
20260508033238 12 90 0.0 1.6 0.00 3.15 3.15 99 1017.0
20260508032735 12 40 0.0 3.2 0.00 3.15 3.15 99 1017.0
20260508032232 12 15 0.0 1.6 0.00 3.15 3.15 99 1017.1
20260508031729 12 66 0.0 0.0 0.00 3.15 3.15 99 1017.1
20260508031225 12 66 0.0 0.0 0.00 3.15 3.15 99 1017.1
20260508030722 12 66 0.0 1.6 0.00 3.15 3.15 99 1016.9
20260508030219 12 90 0.0 0.0 0.00 3.15 3.15 99 1016.9
20260508025715 12 90 0.0 0.0 0.00 3.15 3.15 99 1016.8
20260508025213 12 90 0.0 0.0 0.00 3.15 3.15 99 1016.7
20260508024708 12 90 0.0 0.0 0.00 3.15 3.15 99 1016.8
20260508024206 12 15 0.0 0.0 0.00 3.15 3.15 99 1016.5
20260508023701 12 15 0.0 0.0 0.00 3.15 3.15 99 1016.5
20260508023200 12 15 0.0 0.0 0.00 3.15 3.15 99 1016.6
20260508022655 12 15 0.0 0.0 0.00 3.15 3.15 99 1016.8
20260508022153 12 15 0.0 0.0 0.00 3.15 3.15 99 1016.6
20260508021649 12 15 0.0 0.0 0.00 3.15 3.15 99 1016.4
20260508021144 12 15 0.0 0.0 0.00 3.15 3.15 99 1016.4
20260508020642 13 15 0.0 0.0 0.00 3.15 3.15 99 1016.6
20260508020140 12 15 0.0 0.0 0.00 3.15 3.15 99 1016.1
20260508015637 12 15 0.0 1.6 0.00 3.15 3.15 99 1016.2
20260508015134 13 69 0.0 1.6 0.00 3.15 3.15 99 1015.9
20260508014630 13 99 0.0 0.0 0.00 3.15 3.15 99 1015.9
20260508014126 13 66 1.6 1.6 0.00 3.15 3.15 99 1015.7
20260508013623 13 81 0.0 1.6 0.00 3.15 3.15 99 1015.8
20260508013120 13 82 0.0 0.0 0.00 3.15 3.15 99 1015.5
20260508012617 13 90 0.0 1.6 0.00 3.15 3.15 99 1016.0
20260508012114 13 83 0.0 1.6 0.00 3.15 3.15 99 1015.8
20260508011613 13 90 1.6 3.2 0.00 3.15 3.15 99 1015.4
20260508011109 13 74 0.0 0.0 0.00 3.15 3.15 99 1015.5
20260508010606 13 90 0.0 0.0 0.00 3.15 3.15 99 1015.2
20260508010105 13 81 0.0 3.2 0.00 3.15 3.15 99 1014.8
20260508005600 13 66 0.0 0.0 0.00 3.15 3.15 99 1015.0
20260508005057 13 26 0.0 3.2 0.00 3.15 3.15 99 1014.9
20260508004553 13 78 3.2 3.2 0.00 3.15 3.15 99 1014.4
20260508004050 13 66 0.0 1.6 0.00 3.15 3.15 99 1014.7
20260508003546 14 74 0.0 1.6 0.00 3.15 3.15 99 1014.5
20260508003044 14 75 0.0 1.6 0.00 3.15 3.15 99 1014.5
20260508002540 14 81 0.0 0.0 0.00 3.15 3.15 99 1014.5
20260508002037 14 78 0.0 3.2 0.00 3.15 3.15 99 1014.0
20260508001533 14 90 1.6 3.2 0.00 3.15 3.15 99 1013.8
20260508001029 14 65 0.0 3.2 0.00 3.15 3.15 99 1013.7
20260508000525 14 0 0.0 3.2 0.00 3.15 3.15 99 1013.6
20260508000023 14 94 3.2 3.2 0.00 3.15 3.15 99 1013.9
20260507235519 14 57 0.0 4.8 0.00 3.15 3.15 99 1013.7
20260507235017 14 261 0.0 3.2 0.00 3.15 3.15 99 1013.5
20260507234513 14 264 3.2 6.4 0.00 3.15 3.15 99 1013.4
20260507234010 14 60 3.2 8.0 0.00 3.15 3.15 99 1013.5
20260507233506 15 270 1.6 4.8 0.00 3.15 3.15 99 1013.6
20260507233005 15 29 3.2 8.0 0.00 3.15 3.15 99 1013.2
20260507232501 15 26 0.0 4.8 0.00 3.15 3.15 99 1013.4
20260507231959 15 353 0.0 3.2 0.00 3.15 3.15 99 1013.3
20260507231455 14 297 1.6 6.4 0.00 3.15 3.15 99 1013.3
20260507230952 15 90 1.6 8.0 0.00 3.15 3.15 99 1013.0
20260507230449 15 0 0.0 4.8 0.00 3.15 3.15 99 1012.7
20260507225944 15 25 4.8 6.4 0.00 3.15 3.15 99 1012.8
20260507225440 15 7 3.2 4.8 0.00 3.15 3.15 99 1012.9
20260507224937 15 22 4.8 6.4 0.00 3.15 3.15 99 1012.6
20260507224432 15 33 4.8 6.4 0.05 3.15 3.15 99 1012.6
20260507223930 15 26 0.0 4.8 0.13 3.15 3.15 99 1012.7
20260507223425 15 21 0.0 3.2 0.05 3.12 3.12 99 1012.8
20260507222922 15 78 3.2 3.2 0.00 3.12 3.12 99 1012.6
20260507222419 15 348 0.0 6.4 0.00 3.12 3.12 99 1012.3
20260507221916 15 0 1.6 3.2 0.00 3.12 3.12 99 1012.5
20260507221413 15 311 0.0 6.4 0.00 3.12 3.12 99 1012.2
20260507220908 15 12 0.0 4.8 0.00 3.12 3.12 99 1012.2
20260507220407 15 274 3.2 11.3 0.00 3.12 3.12 99 1012.4
20260507215903 16 31 4.8 4.8 0.00 3.12 3.12 99 1011.8
20260507215400 16 81 3.2 4.8 0.00 3.12 3.12 99 1011.8
20260507214857 16 299 3.2 6.4 1.63 3.12 3.12 99 1011.8
20260507214354 16 292 4.8 8.0 2.46 3.07 3.07 99 1011.9
20260507213850 16 307 4.8 11.3 2.95 2.82 2.82 99 1011.5
20260507213347 16 338 8.0 11.3 2.11 2.62 2.62 99 1011.1
20260507212844 16 0 0.0 8.0 0.18 2.29 2.29 99 1010.4
20260507212339 16 330 0.0 14.5 1.19 2.26 2.26 99 1010.5
20260507211836 16 300 3.2 8.0 3.17 2.26 2.26 98 1010.4
20260507211333 17 341 6.4 8.0 3.07 1.93 1.93 97 1011.3
20260507210830 17 288 4.8 9.7 2.29 1.68 1.68 95 1010.0
20260507210327 19 11 3.2 4.8 0.23 1.35 1.35 88 1010.0
20260507205823 20 321 11.3 12.9 0.00 1.30 1.30 83 1010.3
20260507205320 23 337 3.2 3.2 0.00 1.30 1.30 77 1009.9
20260507204816 23 270 0.0 0.0 0.00 1.30 1.30 78 1010.1
20260507204314 24 270 0.0 0.0 0.00 1.30 1.30 77 1010.1
20260507203812 25 270 0.0 3.2 0.00 1.30 1.30 72 1010.2
20260507203309 25 285 0.0 0.0 0.00 1.30 1.30 77 1010.3
20260507202805 25 285 0.0 3.2 0.00 1.30 1.30 76 1010.2
20260507202306 23 57 0.0 0.0 0.00 1.30 1.30 79 1010.2
20260507201756 23 57 0.0 3.2 0.00 1.30 1.30 76 1010.6
20260507201253 24 286 0.0 4.8 0.00 1.30 1.30 75 1010.4
20260507200750 24 303 0.0 6.4 0.00 1.30 1.30 76 1010.3
20260507200246 24 0 0.0 3.2 0.00 1.30 1.30 78 1010.3
20260507195742 23 40 0.0 3.2 0.00 1.30 1.30 73 1010.3
20260507195239 25 337 1.6 4.8 0.00 1.30 1.30 70 1010.6
20260507194737 26 286 3.2 3.2 0.00 1.30 1.30 73 1010.5
20260507194232 25 0 0.0 4.8 0.00 1.30 1.30 72 1010.6
20260507193729 25 281 0.0 6.4 0.00 1.30 1.30 69 1010.6
20260507193226 25 294 9.7 11.3 0.00 1.30 1.30 72 1011.2
20260507192722 25 294 0.0 0.0 0.00 1.30 1.30 73 1011.0
20260507192219 24 349 0.0 3.2 0.00 1.30 1.30 79 1011.1
20260507191715 25 344 4.8 6.4 0.00 1.30 1.30 74 1011.1
20260507191212 25 303 0.0 4.8 0.00 1.30 1.30 76 1011.3
20260507190709 25 332 4.8 6.4 0.00 1.30 1.30 73 1010.8
20260507190208 25 81 0.0 3.2 0.00 1.30 1.30 80 1011.1
20260507185706 25 337 0.0 1.6 0.00 1.30 1.30 81 1011.1
20260507185202 24 337 3.2 3.2 0.00 1.30 1.30 75 1011.4
20260507184700 24 275 0.0 6.4 0.00 1.30 1.30 78 1011.4
20260507184158 23 279 0.0 12.9 0.00 1.30 1.30 78 1011.2
20260507183654 23 293 8.0 8.0 0.00 1.30 1.30 78 1011.5
20260507183151 23 8 6.4 11.3 0.00 1.30 1.30 76 1011.4
20260507182648 24 14 1.6 3.2 0.00 1.30 1.30 83 1011.2
20260507182143 25 289 1.6 1.6 0.00 1.30 1.30 88 1011.2
20260507181640 22 334 3.2 9.7 0.00 1.30 1.30 79 1011.2
20260507181136 23 66 0.0 3.2 0.00 1.30 1.30 88 1011.3
20260507180633 22 264 8.0 8.0 0.00 1.30 1.30 81 1011.3
20260507180130 22 257 0.0 6.4 0.00 1.30 1.30 88 1011.5
20260507175626 22 33 0.0 0.0 0.00 1.30 1.30 90 1011.5
20260507175123 21 59 0.0 6.4 0.00 1.30 1.30 87 1011.9
20260507174620 21 270 0.0 8.0 0.00 1.30 1.30 89 1012.0
20260507174118 21 103 0.0 0.0 0.00 1.30 1.30 94 1012.1
20260507173615 21 311 0.0 4.8 0.00 1.30 1.30 91 1012.1
20260507173112 21 300 3.2 6.4 0.00 1.30 1.30 93 1012.3
20260507172608 20 11 0.0 4.8 0.00 1.30 1.30 95 1012.1
20260507172106 20 319 3.2 4.8 0.00 1.30 1.30 99 1011.9
20260507171600 19 16 3.2 4.8 0.00 1.30 1.30 99 1012.0
20260507171058 19 292 0.0 3.2 0.00 1.30 1.30 99 1012.1
20260507170554 19 81 0.0 0.0 0.00 1.30 1.30 99 1012.2
20260507170051 18 75 1.6 1.6 0.00 1.30 1.30 99 1012.5
20260507165547 18 0 3.2 3.2 0.00 1.30 1.30 99 1012.5
20260507165044 18 78 0.0 9.7 0.00 1.30 1.30 99 1012.4
20260507164540 18 41 0.0 8.0 0.00 1.30 1.30 99 1012.5
20260507164037 20 81 0.0 1.6 0.00 1.30 1.30 99 1012.2
20260507163534 20 286 0.0 3.2 0.00 1.30 1.30 99 1012.3
20260507163032 18 36 0.0 3.2 0.00 1.30 1.30 99 1012.5
20260507162527 19 82 0.0 1.6 0.00 1.30 1.30 99 1012.5
20260507162024 18 90 0.0 4.8 0.00 1.30 1.30 99 1012.5
20260507161520 19 334 1.6 3.2 0.00 1.30 1.30 99 1012.3
20260507161017 18 99 0.0 4.8 0.00 1.30 1.30 99 1013.0
20260507160513 18 232 9.7 9.7 0.00 1.30 1.30 99 1013.0
20260507160010 19 352 3.2 4.8 0.00 1.30 1.30 99 1012.7
20260507155505 19 194 0.0 0.0 0.00 1.30 1.30 99 1012.2
20260507155003 18 261 0.0 3.2 0.00 1.30 1.30 99 1012.1
20260507154459 18 324 4.8 6.4 0.00 1.30 1.30 99 1012.5
20260507153956 18 337 0.0 4.8 0.00 1.30 1.30 99 1012.1
20260507153453 18 121 4.8 4.8 0.00 1.30 1.30 99 1012.0
20260507152949 18 185 0.0 3.2 0.00 1.30 1.30 99 1011.8
20260507152445 20 270 3.2 3.2 0.00 1.30 1.30 99 1011.3
20260507151941 18 90 0.0 0.0 0.00 1.30 1.30 99 1011.6
20260507151438 18 4 0.0 3.2 0.00 1.30 1.30 99 1011.9
20260507150935 18 157 0.0 4.8 0.00 1.30 1.30 99 1012.2
20260507150432 18 77 0.0 3.2 0.05 1.30 1.30 99 1012.1
20260507145928 18 117 0.0 3.2 0.13 1.30 1.30 99 1012.2